Wind_Speed
17 16 15 14 13 12 11 11 11 9 9 8 8 7 6 6 5 5 5 4 4 3 3 3 3 3 4 4 5 5 6 6 6 7 7 7 8 9 9 10 10 10 11
19 17 16 16 14 13 13 12 12 11 9 9 8 8 7 6 6 6 5 5 5 5 5 5 5 5 6 6 7 7 8 8 8 9 9 9 10 10 11 11 12 12 12
21 19 18 17 16 14 14 14 14 13 11 10 9 8 8 8 7 7 7 7 6 6 6 7 7 7 8 8 9 9 9 10 11 11 11 12 12 12 12 13 13 13 13
23 21 20 18 17 16 15 15 15 14 13 11 10 10 9 9 8 8 8 8 8 8 8 8 9 9 9 10 10 10 11 11 12 12 12 13 13 13 14 14 14 15 15
24 23 21 20 19 18 17 16 16 15 14 13 12 11 11 10 10 10 9 9 9 9 9 10 10 10 11 11 12 12 13 13 13 14 14 14 15 15 15 15 16 16 17
26 24 23 21 20 19 18 17 17 16 15 15 14 13 12 12 12 11 11 11 11 10 10 11 11 12 12 13 13 14 14 14 15 15 15 16 16 16 17 17 17 18 18
27 26 24 23 22 21 19 19 18 17 16 16 15 14 14 13 13 13 13 12 12 12 12 12 13 13 14 14 15 15 16 16 17 17 17 18 18 18 18 19 19 19 20
28 27 25 24 23 22 21 20 20 19 18 17 16 16 15 15 15 14 14 14 13 13 14 14 14 15 16 16 17 17 18 18 19 19 19 19 19 20 20 20 20 21 21
31 29 27 26 24 23 22 22 21 20 19 18 17 17 17 17 16 16 16 15 15 15 15 15 16 17 17 18 18 18 19 19 20 20 20 21 21 21 21 21 22 22 22
32 31 29 27 26 24 23 23 22 22 20 19 19 18 18 18 17 17 17 17 17 17 17 17 17 18 18 19 19 20 20 21 21 21 21 22 22 22 22 23 23 23 23
33 32 31 29 27 26 25 24 24 23 22 21 20 19 19 19 19 18 18 18 18 18 18 19 19 19 20 21 21 21 21 21 21 22 22 22 22 23 23 23 24 24 24
33 32 32 31 29 28 27 25 25 24 24 23 22 21 21 21 21 21 20 20 19 19 20 20 21 21 22 22 22 22 22 22 22 22 22 22 23 23 24 24 24 25 26
34 33 32 31 30 29 28 27 26 26 25 24 24 23 23 23 23 22 21 21 21 21 22 22 22 22 22 22 22 22 22 22 23 23 23 23 24 24 25 25 26 27 27
34 34 32 31 30 30 29 28 28 27 27 26 25 24 24 24 24 24 23 23 23 23 24 24 24 23 23 23 23 24 24 24 24 24 24 24 25 25 26 26 27 28 29
35 34 33 32 31 30 29 28 28 28 28 27 27 26 25 26 26 26 25 25 25 25 25 25 25 24 24 25 25 25 25 25 25 26 26 26 27 27 27 28 28 29 30
35 34 34 33 32 31 30 29 29 28 28 29 28 27 26 27 27 27 27 26 26 26 26 26 26 26 27 27 27 26 26 27 27 28 28 28 28 29 29 29 30 30 31
34 34 34 33 32 32 31 29 29 29 30 30 30 29 28 28 28 28 28 28 28 27 27 28 28 28 28 28 28 28 28 29 29 29 29 29 29 30 30 31 31 31 31
33 33 34 33 32 32 31 30 30 30 31 31 31 30 30 29 29 29 29 30 30 29 29 29 29 30 30 30 29 29 30 30 30 30 30 30 30 31 31 31 31 32 31
33 33 33 33 33 32 32 31 31 31 32 32 32 31 31 30 30 30 30 30 31 31 31 31 31 31 31 31 31 31 31 31 31 31 31 32 32 32 32 32 32 32 32
33 33 33 32 32 32 33 32 32 31 32 32 32 32 32 31 30 30 30 30 31 32 33 33 33 32 33 32 32 32 32 32 32 32 33 33 33 33 33 33 33 34 34
32 33 33 32 32 32 32 32 32 32 32 31 32 32 32 31 30 31 32 32 33 34 33 33 34 34 34 34 34 34 34 34 34 34 34 34 34 34 34 35 35 36 36
32 32 32 33 32 32 32 32 32 31 31 31 32 33 33 33 32 32 33 34 34 34 34 34 34 35 35 35 36 36 36 36 36 36 36 36 36 36 36 36 37 37 37
30 31 31 31 32 33 33 33 32 32 32 33 33 34 35 35 35 35 34 35 36 36 35 35 36 36 36 36 37 37 37 37 37 37 37 37 38 38 38 39 39 40 40
28 30 31 30 31 32 33 33 34 34 33 33 35 35 36 36 37 37 36 36 35 35 35 36 37 37 37 37 37 37 38 38 38 38 38 39 40 40 40 41 41 42 42
28 28 29 30 31 31 32 32 33 34 34 35 35 36 36 37 38 38 38 37 37 36 36 37 37 38 38 38 38 38 39 39 40 41 41 41 42 42 43 43 43 44 44
28 29 29 29 30 31 31 32 32 33 35 36 36 37 37 37 38 39 40 40 39 39 38 38 39 39 39 40 41 41 42 42 43 44 44 45 45 45 45 46 46 46 47
Wind_Direction
227 226 225 223 219 216 214 211 211 213 214 213 214 214 214 214 216 219 224 229 232 241 253 266 278 287 291 290 292 295 296 297 298 296 293 291 290 288 287 287 287 288 288
226 225 225 225 223 221 220 219 218 223 222 220 222 224 224 226 228 232 235 240 244 252 260 268 277 282 287 288 290 291 291 292 293 294 292 290 289 288 288 287 287 286 285
227 226 225 226 226 226 225 224 224 227 229 229 229 230 232 235 238 241 244 247 253 258 265 272 276 280 283 286 288 289 288 288 288 288 288 287 286 285 285 285 285 285 284
226 227 227 227 228 228 229 227 228 230 233 234 235 237 240 242 246 249 248 251 256 261 266 270 273 277 281 284 286 286 287 287 287 287 286 284 284 284 284 283 282 282 282
225 226 227 228 228 229 231 230 230 232 235 237 239 242 245 246 250 252 252 254 257 262 267 270 274 278 281 284 286 287 287 287 286 286 286 285 284 284 284 283 283 282 282
223 225 227 228 228 229 231 231 231 233 235 238 241 244 247 248 250 253 255 256 259 263 267 271 275 279 281 283 285 285 286 286 286 286 286 285 285 284 283 283 282 282 283
222 224 225 227 228 229 230 231 231 234 236 239 242 245 249 250 251 253 256 258 261 264 268 271 275 278 281 282 283 284 285 285 285 285 284 285 284 284 283 283 283 283 283
222 223 225 226 228 229 230 231 233 235 238 241 243 246 250 252 252 254 257 260 262 265 269 272 275 278 280 282 283 284 285 285 285 285 284 284 284 283 284 284 283 283 283
221 223 224 224 226 228 230 232 233 236 239 242 245 247 250 252 254 255 257 260 263 266 269 273 276 278 280 282 283 284 285 285 285 285 284 283 283 282 283 284 284 283 283
221 222 223 224 226 230 232 233 235 236 240 243 245 248 250 252 254 255 256 260 264 266 269 273 276 278 280 282 283 284 285 285 285 284 284 283 283 283 283 284 284 284 283
221 222 224 225 227 230 233 235 236 238 242 245 246 248 250 251 254 257 257 261 264 266 269 273 276 279 281 282 283 284 285 285 284 284 283 283 283 284 284 284 284 284 283
221 222 224 226 229 231 233 236 238 239 243 246 248 248 249 251 254 258 260 261 264 267 271 274 277 280 281 281 282 283 285 285 284 284 284 284 284 284 284 284 284 283 283
221 223 225 227 229 232 234 236 239 241 244 246 248 248 249 251 254 257 260 261 265 269 272 274 276 278 279 280 282 283 284 284 283 284 284 283 283 284 284 284 283 283 284
220 223 224 227 230 233 235 237 240 242 244 246 248 248 250 253 254 257 260 262 265 270 273 275 276 277 277 279 280 281 281 282 282 283 284 284 284 285 285 285 284 285 285
219 222 225 226 230 232 235 237 240 242 245 246 248 250 250 253 255 258 261 264 267 270 272 274 275 275 276 277 279 279 280 280 281 282 283 284 284 285 285 286 286 286 287
219 222 225 228 230 232 235 238 239 242 245 246 248 251 253 254 256 259 261 264 267 269 271 273 274 274 276 276 277 278 278 279 280 281 283 284 284 285 286 286 286 287 287
221 223 225 228 230 232 235 237 240 243 246 248 250 253 254 255 257 259 262 264 267 269 271 273 274 275 276 277 277 277 278 279 280 281 282 284 285 286 286 287 287 287 287
222 224 226 229 231 233 235 237 240 245 248 251 253 254 255 256 258 261 263 265 267 269 272 273 274 275 276 277 278 279 279 279 280 281 282 283 284 285 286 286 285 286 286
222 225 227 229 232 232 235 239 241 244 249 253 254 256 258 258 259 260 263 267 270 271 271 273 274 275 277 278 278 279 279 280 280 281 282 282 283 284 284 285 284 285 285
224 227 229 230 234 235 237 240 244 246 249 252 254 255 258 258 259 261 264 268 270 272 272 273 274 275 277 277 278 279 279 279 280 280 281 282 282 282 283 283 283 284 284
227 229 231 233 236 238 239 242 245 248 250 252 255 256 257 261 263 263 265 269 272 273 273 274 273 275 276 276 277 278 278 278 279 280 281 281 282 282 282 282 282 283 283
228 231 234 235 238 241 243 244 245 246 250 254 255 256 259 263 266 268 269 271 272 273 273 273 274 274 275 276 278 278 278 279 279 280 280 281 281 282 283 283 283 283 283
231 233 237 239 241 245 247 248 247 248 252 255 258 261 264 266 268 269 272 273 274 273 272 273 274 276 277 277 278 279 279 278 279 280 280 281 281 282 282 283 282 283 283
237 238 240 243 244 246 249 250 253 255 258 260 263 265 266 268 270 271 272 274 274 273 273 274 275 275 277 277 278 278 279 279 279 279 280 281 281 282 283 283 283 282 283
243 246 248 248 250 252 254 256 259 260 260 262 264 267 269 270 270 272 273 274 274 274 274 275 275 275 275 276 277 277 279 279 279 279 280 280 281 281 281 282 282 282 283
247 249 251 253 254 256 258 260 262 262 263 265 267 269 270 271 271 272 273 274 275 275 276 276 275 274 275 276 277 277 278 279 280 280 280 280 280 281 281 281 282 283 283
Height
5861 5862 5863 5864 5865 5866 5867 5868 5869 5870 5870 5871 5872 5872 5872 5873 5873 5873 5873 5873 5873 5873 5873 5872 5872 5872 5872 5872 5872 5871 5871 5870 5870 5869 5869 5868 5868 5867 5867 5866 5866 5865 5865
5857 5859 5860 5862 5863 5864 5865 5866 5867 5868 5869 5869 5870 5870 5871 5871 5871 5871 5872 5872 5872 5871 5871 5871 5871 5871 5870 5870 5870 5870 5869 5869 5868 5868 5867 5867 5866 5865 5865 5864 5863 5863 5862
5854 5855 5857 5859 5860 5861 5863 5864 5865 5866 5867 5868 5868 5869 5869 5869 5870 5870 5870 5870 5870 5870 5870 5869 5869 5869 5869 5868 5868 5868 5867 5867 5866 5866 5865 5864 5864 5863 5862 5862 5861 5860 5860
5850 5852 5854 5856 5857 5859 5860 5861 5862 5864 5865 5866 5866 5867 5867 5868 5868 5868 5868 5868 5868 5868 5868 5867 5867 5867 5867 5866 5866 5865 5865 5864 5864 5863 5862 5862 5861 5860 5860 5859 5858 5858 5857
5846 5848 5850 5852 5854 5855 5857 5858 5860 5861 5863 5863 5864 5865 5865 5865 5866 5866 5866 5866 5866 5865 5865 5865 5865 5864 5864 5864 5863 5863 5862 5862 5861 5860 5859 5859 5858 5857 5857 5856 5855 5855 5854
5841 5844 5846 5848 5850 5852 5854 5855 5857 5858 5860 5861 5862 5862 5863 5863 5863 5863 5863 5863 5863 5863 5863 5863 5862 5862 5862 5861 5861 5860 5859 5859 5858 5857 5856 5855 5855 5854 5853 5853 5852 5851 5850
5837 5840 5842 5844 5847 5849 5850 5852 5854 5855 5857 5858 5859 5859 5860 5860 5860 5861 5861 5861 5861 5861 5860 5860 5860 5859 5859 5858 5858 5857 5856 5855 5854 5853 5852 5852 5851 5850 5850 5849 5848 5847 5847
5833 5835 5838 5840 5843 5845 5847 5849 5850 5852 5853 5854 5855 5856 5857 5857 5857 5858 5858 5858 5858 5858 5858 5857 5857 5856 5856 5855 5854 5854 5853 5851 5850 5849 5848 5848 5847 5846 5846 5845 5844 5843 5842
5828 5831 5834 5836 5839 5841 5843 5845 5847 5848 5850 5851 5852 5853 5853 5854 5854 5854 5855 5855 5855 5855 5854 5854 5854 5853 5853 5852 5851 5850 5849 5847 5846 5845 5844 5843 5843 5842 5841 5840 5840 5839 5838
5823 5826 5829 5832 5835 5837 5839 5841 5843 5845 5846 5847 5848 5849 5850 5850 5851 5851 5851 5851 5851 5851 5851 5851 5850 5850 5849 5848 5847 5846 5845 5843 5841 5840 5839 5839 5838 5837 5837 5836 5835 5834 5833
5818 5821 5825 5828 5830 5833 5835 5837 5839 5841 5842 5843 5844 5845 5846 5846 5847 5846 5847 5848 5848 5848 5847 5847 5846 5846 5845 5844 5843 5841 5840 5838 5837 5836 5835 5834 5833 5833 5832 5831 5830 5829 5828
5813 5817 5820 5823 5826 5828 5831 5833 5834 5836 5837 5839 5840 5841 5841 5842 5843 5843 5843 5843 5844 5844 5843 5843 5842 5841 5840 5839 5838 5837 5835 5834 5833 5831 5831 5830 5829 5828 5827 5826 5825 5824 5823
5808 5812 5815 5819 5821 5824 5826 5828 5830 5831 5833 5834 5835 5836 5837 5838 5838 5839 5839 5839 5839 5839 5839 5838 5837 5837 5836 5835 5834 5832 5831 5830 5828 5827 5826 5825 5824 5823 5822 5821 5820 5818 5817
5803 5807 5810 5814 5816 5819 5821 5823 5825 5827 5828 5829 5830 5831 5832 5833 5834 5834 5834 5835 5834 5834 5834 5833 5832 5832 5831 5830 5829 5828 5826 5825 5824 5823 5821 5820 5819 5818 5816 5815 5814 5812 5811
5798 5801 5805 5809 5811 5814 5816 5818 5820 5822 5823 5824 5825 5826 5827 5828 5828 5829 5829 5829 5829 5829 5828 5828 5827 5826 5825 5825 5823 5822 5821 5820 5819 5817 5816 5815 5814 5812 5811 5809 5808 5806 5805
5793 5796 5800 5803 5806 5809 5811 5813 5815 5817 5818 5818 5820 5821 5821 5822 5823 5824 5824 5824 5824 5823 5823 5822 5821 5821 5820 5819 5818 5816 5815 5814 5813 5812 5810 5809 5808 5806 5805 5803 5802 5800 5798
5788 5791 5795 5798 5801 5803 5805 5808 5810 5811 5812 5812 5814 5815 5816 5817 5817 5818 5818 5818 5818 5817 5817 5816 5816 5815 5814 5813 5812 5810 5809 5808 5807 5805 5804 5803 5801 5800 5798 5796 5795 5793 5792
5783 5786 5790 5793 5796 5798 5800 5802 5804 5805 5806 5807 5808 5809 5810 5811 5811 5812 5812 5812 5812 5811 5811 5810 5810 5809 5807 5806 5805 5804 5803 5802 5800 5799 5797 5796 5794 5793 5791 5789 5788 5786 5785
5777 5781 5784 5787 5790 5792 5794 5796 5798 5799 5800 5801 5802 5803 5804 5805 5805 5805 5806 5806 5805 5805 5804 5804 5803 5802 5801 5800 5798 5797 5796 5795 5793 5792 5790 5789 5787 5785 5784 5782 5781 5779 5777
5772 5775 5779 5782 5784 5787 5789 5790 5791 5793 5794 5795 5795 5796 5797 5798 5798 5799 5799 5799 5799 5798 5797 5797 5796 5795 5794 5792 5791 5790 5789 5787 5786 5785 5783 5782 5780 5778 5777 5775 5773 5772 5770
5768 5771 5773 5776 5779 5781 5783 5784 5786 5787 5788 5788 5789 5789 5790 5791 5791 5791 5792 5791 5791 5791 5790 5789 5788 5787 5786 5785 5784 5783 5781 5780 5778 5777 5775 5774 5772 5770 5769 5767 5765 5764 5762
5763 5766 5769 5771 5774 5776 5777 5778 5779 5780 5781 5782 5782 5783 5783 5784 5784 5784 5784 5784 5784 5783 5782 5781 5780 5779 5778 5777 5776 5774 5773 5773 5770 5769 5767 5766 5764 5762 5761 5759 5757 5755 5754
5759 5761 5764 5766 5768 5770 5771 5772 5772 5774 5775 5775 5776 5776 5776 5777 5777 5777 5776 5776 5775 5775 5774 5773 5772 5771 5770 5769 5767 5766 5765 5764 5762 5761 5759 5757 5755 5754 5752 5750 5748 5746 5744
5754 5756 5759 5760 5762 5763 5764 5765 5766 5767 5768 5768 5769 5769 5769 5769 5769 5769 5769 5768 5767 5767 5766 5765 5764 5763 5762 5761 5759 5757 5756 5754 5753 5752 5751 5748 5746 5744 5742 5741 5738 5737 5735
5749 5751 5753 5755 5756 5757 5758 5759 5760 5760 5761 5761 5761 5761 5761 5761 5761 5761 5760 5760 5759 5758 5757 5757 5756 5754 5753 5752 5750 5749 5747 5745 5743 5742 5741 5739 5737 5735 5732 5730 5728 5726 5724
5744 5746 5747 5749 5750 5751 5752 5753 5753 5754 5754 5754 5754 5753 5753 5753 5753 5752 5752 5751 5750 5750 5749 5748 5747 5745 5744 5742 5741 5739 5737 5736 5734 5732 5730 5728 5726 5724 5722 5719 5717 5715 5713